Probability
0 0 0 0 0 0 0 0 0 0 0 0 0 0 1 2 4 4 4 5 6 7 6 5 6 7 8 9 10 13 18 20 19 17 15 12 11 11 10 8 7 7 7 6
0 0 0 0 0 0 0 0 0 0 0 0 0 0 1 2 4 5 6 8 8 8 8 8 8 8 9 10 11 13 16 18 19 18 17 15 13 13 12 10 8 8 7 7
0 0 0 0 0 0 0 0 0 0 0 0 0 0 0 2 4 7 11 13 12 11 12 11 10 9 9 12 13 13 15 17 19 20 20 19 17 15 13 11 9 8 8 8
0 0 0 0 0 0 0 0 0 0 0 0 0 0 1 2 4 9 13 15 15 14 13 12 10 9 9 12 14 16 20 22 23 23 22 21 19 14 12 11 10 9 9 10
0 0 0 0 0 0 0 0 0 0 0 0 0 0 1 2 5 9 12 14 14 14 14 13 12 10 10 12 16 20 27 31 32 30 26 24 21 17 15 14 13 11 10 10
0 0 0 0 0 0 0 0 0 0 0 0 0 0 1 3 6 8 12 14 15 15 17 17 15 12 11 14 18 25 33 38 38 35 31 30 29 25 21 18 15 12 10 8
0 0 0 0 0 0 0 0 0 0 0 0 0 0 2 5 6 7 11 16 18 19 22 23 18 14 14 17 21 27 35 40 38 34 33 34 34 31 27 21 16 13 10 8
0 0 0 0 0 0 0 0 0 0 0 0 0 1 3 5 6 7 11 16 19 21 24 25 21 19 21 23 24 28 34 38 35 31 30 32 33 31 27 22 16 13 11 10
0 0 0 0 0 0 0 0 0 0 0 0 0 2 3 4 5 7 10 13 16 18 21 23 24 24 26 26 27 29 33 36 35 30 27 28 29 27 25 22 17 13 11 10
0 0 0 0 0 0 0 0 0 0 0 0 0 2 3 4 4 5 8 11 12 13 15 20 23 24 25 26 26 28 32 34 36 34 30 27 26 25 22 18 16 14 11 10
0 0 0 0 0 0 0 0 0 0 0 0 0 1 4 4 2 2 6 9 10 10 13 19 21 20 21 24 27 29 30 32 35 36 34 30 27 24 19 15 15 14 12 10
0 0 0 0 0 0 0 0 0 0 0 0 0 2 4 3 1 2 5 9 10 11 15 20 21 18 19 23 28 30 30 30 31 34 35 33 29 25 20 16 14 13 12 11
0 0 0 0 0 0 0 0 0 0 0 0 1 2 3 3 2 3 6 8 11 13 17 21 21 19 20 23 26 27 28 29 30 32 35 35 30 26 23 18 15 13 12 12
1 1 1 0 0 0 0 0 0 0 0 1 2 3 4 4 4 5 7 8 11 15 18 20 21 21 22 24 24 25 28 30 31 32 34 33 29 26 24 20 16 13 11 10
0 1 1 1 0 0 0 0 0 0 0 1 3 3 4 5 6 7 8 9 13 17 19 20 20 21 23 25 25 27 30 32 32 32 31 30 26 24 22 18 14 11 9 7
0 0 1 1 0 0 0 0 0 0 1 2 3 3 5 7 10 10 10 12 15 18 20 21 20 21 24 26 27 28 30 31 32 29 27 25 22 19 17 14 11 10 9 8
0 0 1 1 1 0 0 0 0 0 1 3 4 4 5 8 11 12 12 12 13 16 19 19 20 21 24 26 26 25 25 27 27 24 21 20 18 16 13 11 10 10 10 10
1 1 2 2 2 1 1 0 0 0 1 3 4 3 4 7 10 11 11 10 11 13 16 18 19 21 23 25 23 21 20 20 19 17 15 14 15 14 12 11 10 10 11 11
3 3 3 3 3 2 1 0 0 0 1 2 3 3 3 6 8 9 9 9 10 15 18 17 18 19 20 21 20 19 18 16 14 12 10 10 11 11 11 11 11 11 11 11
4 4 3 3 3 1 1 1 0 0 1 2 2 2 3 6 8 10 9 9 14 19 19 16 16 17 17 18 19 19 19 17 15 11 9 8 8 8 10 11 12 11 11 9
3 3 2 3 2 1 2 2 2 3 5 6 4 3 5 8 12 12 11 12 17 20 18 15 15 16 16 17 19 19 20 20 16 13 11 9 8 9 10 11 10 9 8 7
3 2 2 3 2 2 3 4 5 7 10 10 7 6 7 9 10 11 12 14 17 18 18 16 15 16 17 18 19 20 20 19 15 13 12 10 9 9 10 9 7 6 5 5
2 3 3 4 3 2 2 4 5 8 10 9 8 7 7 6 5 6 10 13 13 15 18 19 18 16 16 17 18 19 18 15 13 12 11 9 8 9 9 8 7 6 5 4
2 3 3 4 4 2 1 1 3 6 7 6 5 5 4 4 4 5 8 10 11 12 16 20 19 16 16 15 15 15 14 12 11 10 9 8 8 8 8 8 7 6 5 5
2 3 4 4 4 3 1 0 2 5 6 5 4 3 3 5 5 6 9 10 10 12 15 19 20 18 17 16 13 12 11 10 10 9 9 9 9 7 6 6 6 5 4 4
2 3 4 5 5 3 2 1 2 6 6 5 4 4 4 4 4 6 10 11 11 12 16 20 21 20 19 16 14 12 11 9 9 9 9 9 9 6 4 4 4 3 3 4
Wind_Speed
9 11 11 9 10 9 8 9 9 6 3 8 10 9 7 7 8 9 8 8 9 9 9 9 10 10 10 10 10 10 9 8 7 5 5 5 4 3 3 2 2 2 1 1
10 13 9 7 8 9 10 11 10 6 4 7 9 10 7 7 9 8 8 8 8 8 9 10 10 10 10 11 11 10 10 9 8 6 4 3 3 3 3 2 3 3 3 2
13 5 5 8 10 11 11 11 9 7 5 8 9 11 9 7 7 7 7 7 7 8 9 10 10 11 11 11 12 10 10 10 9 8 6 5 4 3 4 4 4 3 3 2
11 6 7 10 11 11 10 8 9 8 9 8 8 9 7 8 8 8 7 7 6 7 8 9 10 11 11 11 11 11 11 10 9 9 7 7 6 5 4 3 3 3 3 2
8 7 9 11 9 10 9 5 8 9 10 11 10 11 7 8 8 7 7 6 5 5 7 8 9 10 10 10 10 10 10 10 9 9 8 7 6 4 4 3 3 3 3 3
8 5 7 8 7 7 6 7 8 10 11 13 11 11 8 5 5 5 5 6 5 4 5 6 6 8 9 9 9 10 10 10 10 9 9 8 6 5 4 4 4 4 3 3
10 10 7 7 8 9 9 10 8 10 10 10 6 9 5 1 2 3 3 3 4 4 4 5 6 8 9 10 10 9 10 9 9 9 8 8 7 7 6 5 4 3 3 2
10 10 9 8 9 8 11 13 10 9 9 7 7 9 3 3 2 2 2 2 3 4 4 5 5 6 8 9 9 9 10 9 9 9 7 7 7 5 5 5 3 3 2 2
7 7 7 7 8 10 11 12 10 11 11 10 8 6 5 5 5 4 3 3 3 4 4 4 4 5 6 7 8 9 9 9 9 9 8 7 6 5 4 5 4 3 2 2
6 7 7 7 9 9 10 9 8 11 10 11 10 10 6 7 6 5 4 3 3 3 3 4 4 5 5 6 6 7 8 8 8 8 8 6 6 6 5 5 4 3 3 2
7 8 7 8 10 10 9 11 10 10 10 10 10 5 2 5 5 4 3 2 2 3 3 3 3 4 5 6 6 6 7 7 7 7 6 6 6 6 5 4 5 4 4 4
6 7 8 9 6 7 10 11 11 10 10 11 10 3 4 4 4 3 2 2 2 2 3 4 4 4 5 6 6 6 6 6 7 7 6 6 5 5 5 5 4 4 5 4
5 7 9 9 9 8 9 10 11 11 9 10 11 4 6 4 2 1 1 1 2 2 3 4 4 4 4 4 5 6 7 6 6 6 7 6 5 5 5 5 4 4 4 4
6 8 10 10 5 5 9 10 11 12 11 11 12 7 3 2 2 2 1 1 2 2 3 3 4 4 4 4 5 5 6 6 6 6 6 5 5 5 4 4 4 5 4 4
6 9 10 11 9 8 10 11 12 14 13 13 10 7 4 2 3 2 2 2 2 2 3 4 4 4 4 4 4 5 5 5 5 5 5 4 4 4 4 3 4 4 4 4
4 7 8 11 11 10 11 11 11 12 11 11 9 7 3 1 2 2 2 3 3 2 2 3 4 4 4 4 3 5 5 5 5 5 4 4 3 4 4 4 4 4 4 4
5 6 8 9 8 9 11 9 9 9 8 8 8 5 1 2 2 2 2 3 3 2 2 3 4 4 4 4 3 4 5 5 4 4 4 4 3 3 3 4 4 4 4 4
6 7 6 7 8 11 3 0 4 6 5 4 3 2 1 2 1 1 1 1 1 1 2 2 3 4 4 4 4 3 4 4 4 4 4 4 4 3 3 4 4 3 3 4
6 6 6 6 9 8 3 1 3 5 4 1 2 1 1 1 2 2 1 0 0 1 2 2 3 4 4 4 4 4 4 4 3 3 3 3 3 3 4 3 3 3 3 4
6 6 7 7 9 8 2 2 3 6 6 1 1 2 1 3 4 1 1 0 1 1 2 3 4 5 5 4 4 4 4 3 3 2 2 2 3 3 3 3 3 3 3 4
6 6 7 8 8 4 4 2 3 7 0 3 2 2 2 3 3 2 0 0 1 2 3 4 4 4 5 4 4 4 3 2 2 1 2 2 2 2 2 2 2 3 3 3
5 5 6 7 8 3 4 1 2 4 4 3 2 2 2 1 1 1 1 1 2 3 4 4 4 4 4 4 4 4 3 2 1 2 2 2 2 2 1 2 2 2 2 3
4 3 3 3 2 3 3 3 4 3 3 3 3 3 2 2 2 1 1 1 2 3 3 3 4 4 4 4 3 3 2 2 2 2 2 2 2 1 1 2 2 2 3 3
2 2 4 4 2 2 3 3 3 4 4 4 4 3 3 3 2 2 2 2 2 2 3 3 3 4 3 3 3 3 2 2 2 2 2 2 2 2 2 1 1 1 2 2
3 3 5 6 4 4 3 4 5 5 5 4 4 3 3 2 2 2 2 2 2 2 2 2 3 3 3 3 3 2 2 2 3 3 2 2 3 2 2 1 1 1 1 2
4 5 5 4 4 5 5 6 7 6 5 4 4 3 2 2 2 2 2 2 2 2 2 2 3 3 3 2 2 2 2 3 3 3 3 2 2 2 2 2 1 4 2 3
Wind_Direction
196 220 219 218 230 257 258 251 248 239 205 242 244 245 229 213 223 223 212 207 204 205 196 186 185 185 181 181 182 186 188 179 183 183 186 184 179 179 172 167 142 152 145 169
204 224 228 231 231 242 244 245 244 232 211 250 252 248 233 216 224 226 219 210 207 198 188 183 184 186 186 183 184 185 187 184 189 184 190 192 181 183 173 167 151 171 177 207
227 218 206 223 222 232 238 246 250 249 226 230 252 242 222 208 212 212 214 214 207 198 190 188 189 190 188 186 187 188 186 185 192 184 184 177 173 185 181 181 178 179 189 195
233 216 215 225 227 235 239 239 252 247 242 233 230 256 213 202 199 202 205 208 209 201 195 192 191 191 192 190 188 189 185 186 185 185 192 191 194 191 184 188 165 175 187 193
217 213 222 231 233 236 252 250 245 245 248 254 227 251 228 193 209 212 207 209 211 205 197 193 195 191 190 189 187 184 183 183 183 188 190 200 202 193 182 182 167 196 173 187
239 218 238 242 238 230 233 222 224 236 242 243 237 245 242 201 220 213 193 198 194 194 187 187 188 187 187 184 182 179 177 180 181 186 191 200 200 198 192 192 184 196 180 181
217 210 210 230 222 203 219 229 225 223 224 237 210 241 248 194 204 208 188 186 184 185 179 177 179 180 180 181 180 179 177 177 180 185 190 193 197 196 198 202 191 205 191 182
225 213 198 207 226 226 223 238 247 251 247 234 202 236 210 150 163 176 179 168 167 177 183 180 178 177 175 175 178 179 178 177 178 180 185 188 189 197 193 196 199 197 199 175
242 230 188 209 229 241 227 234 256 264 261 258 236 220 195 181 185 183 172 163 169 182 180 175 172 170 170 173 177 178 174 175 177 178 180 182 184 191 182 180 198 196 192 182
258 253 215 205 219 223 248 240 239 247 251 253 242 232 220 184 189 185 184 175 168 174 170 166 165 164 169 170 169 173 171 175 175 175 181 174 177 180 180 193 188 188 194 189
249 249 225 209 223 226 216 224 238 249 253 259 257 240 132 181 190 201 204 188 171 181 169 164 160 159 161 162 160 161 164 167 169 170 170 170 172 173 178 186 186 186 193 189
233 254 249 232 227 251 238 236 234 241 244 253 265 255 111 155 173 198 204 178 171 177 165 157 151 146 154 161 160 159 164 168 169 164 165 169 173 176 181 182 185 187 190 194
220 239 242 222 199 207 226 230 238 249 252 248 251 232 122 141 178 193 188 170 164 170 164 150 143 150 154 161 165 165 169 169 168 164 168 166 176 183 186 184 187 190 193 197
246 240 248 253 260 234 233 237 239 241 245 250 254 253 192 186 223 211 178 186 194 181 171 160 147 151 154 160 169 171 172 166 167 165 166 168 178 182 185 188 189 193 195 198
250 247 249 259 261 256 244 240 239 241 252 259 263 257 261 265 238 214 180 170 190 190 179 164 160 153 158 161 168 169 167 161 161 164 165 171 177 179 183 188 192 196 200 204
246 259 253 252 247 246 249 245 242 245 250 254 259 263 280 238 210 197 185 185 198 204 189 172 171 168 165 161 166 166 156 154 161 164 160 162 172 181 185 192 197 197 202 209
239 245 249 247 240 244 241 239 238 237 244 250 253 267 274 242 215 213 203 201 206 200 190 181 175 173 164 160 161 163 156 155 157 159 166 169 170 185 198 202 198 201 199 208
247 249 248 250 235 237 225 200 249 245 241 254 268 290 276 274 250 229 222 214 200 184 168 161 153 147 149 146 149 149 151 156 155 157 165 170 173 188 203 210 204 202 204 208
234 238 248 245 240 236 199 208 257 247 232 261 263 281 333 108 190 176 112 166 209 172 141 149 150 144 143 142 146 149 156 160 158 163 167 172 180 194 202 211 212 208 211 216
196 228 245 243 249 242 182 68 305 254 224 81 316 298 285 238 241 145 86 196 117 126 133 141 141 136 136 140 148 146 148 151 157 169 179 184 193 205 209 207 217 216 215 222
199 215 236 250 249 242 48 18 267 241 340 26 334 303 279 273 343 47 97 122 139 143 140 142 144 142 141 142 143 146 147 156 162 151 171 181 193 203 205 209 227 224 220 222
244 237 230 246 246 227 38 329 300 0 10 350 335 311 294 330 40 132 161 154 152 154 149 148 146 141 143 148 150 145 133 138 156 158 165 167 185 208 182 201 227 222 216 213
253 296 288 271 293 23 347 350 360 339 328 324 319 316 294 266 244 206 170 157 151 149 149 160 157 149 149 153 153 143 135 144 159 172 175 179 192 210 197 206 218 222 215 224
204 268 262 258 255 311 320 329 325 318 316 312 306 296 271 256 237 206 173 161 154 151 153 159 159 151 143 144 144 137 138 155 169 179 186 193 199 196 190 220 223 243 240 233
287 259 257 255 273 285 288 320 321 317 307 299 300 290 271 243 222 204 179 161 151 141 140 155 158 149 139 139 143 147 153 165 175 186 194 201 202 186 190 204 6 309 21 3
250 263 270 284 310 298 307 314 310 305 305 303 301 300 273 233 223 206 174 157 157 152 152 160 161 152 146 149 154 162 170 184 193 195 194 200 204 193 195 180 132 58 53 68